Wind_Speed
4 3 3 3 3 4 3 2 2 1 1 0 1 1 1 1 1 0 1 2 2 3 2 2 2 3 3 4 5 5 5 6 6 7 7 7 7 7 8 8 9 9 9
3 3 2 3 3 2 2 2 1 1 0 0 1 2 2 1 1 2 2 3 3 3 3 2 3 3 4 5 5 6 6 6 7 7 8 8 8 8 8 8 9 9 10
2 2 2 2 2 2 2 2 1 1 1 1 1 2 2 2 2 2 3 3 3 3 3 3 4 4 5 5 5 6 6 6 7 7 7 7 8 8 8 8 8 9 9
2 1 2 2 2 2 2 2 2 2 2 2 2 3 3 4 3 3 3 3 3 3 4 4 5 5 5 6 6 6 6 7 7 8 8 8 8 8 8 8 8 9 9
2 2 3 3 2 2 1 2 2 2 3 2 3 3 4 4 5 4 4 4 4 4 4 5 6 6 6 7 7 7 7 7 8 8 9 9 9 9 10 9 9 9 9
4 3 4 4 3 3 2 2 2 3 3 3 3 4 5 5 5 5 5 5 5 6 6 6 7 7 7 7 7 8 8 8 8 9 9 9 9 10 10 10 10 10 10
5 5 5 4 4 4 4 4 4 3 3 3 4 5 5 5 6 6 6 6 6 6 6 7 7 8 8 8 8 8 9 9 9 10 10 10 10 10 11 11 11 11 11
6 6 5 5 5 5 5 6 6 5 4 5 5 5 6 7 7 7 7 7 7 7 8 8 8 8 8 8 9 9 9 9 10 10 11 11 11 11 12 12 12 12 12
7 7 6 6 6 6 7 7 7 7 6 6 7 7 7 8 9 8 8 8 9 8 8 8 8 8 9 9 10 10 10 10 11 12 12 12 12 12 12 12 13 13 13
8 7 6 7 7 8 7 7 7 7 7 8 8 8 9 9 10 10 9 9 9 8 9 9 9 9 10 10 11 11 11 12 12 13 12 12 13 13 13 13 13 13 14
8 7 7 8 8 8 8 8 8 9 9 9 10 10 10 10 10 10 10 10 9 9 9 10 11 11 11 11 12 12 12 13 14 14 14 14 14 14 14 14 14 14 14
9 8 8 8 8 9 10 9 10 10 11 11 11 11 11 11 11 11 10 10 11 10 10 12 12 13 13 13 13 13 14 15 16 16 15 15 16 15 15 15 15 15 15
10 10 10 10 10 11 11 10 11 12 12 12 12 12 12 12 12 12 12 12 12 13 13 14 14 14 14 14 14 14 15 15 15 16 16 16 17 17 17 17 16 16 17
11 11 11 12 12 12 12 12 12 12 13 13 13 13 13 14 14 14 14 14 14 14 14 15 15 15 15 14 15 15 15 15 16 16 16 17 17 18 18 18 18 18 18
12 12 13 14 13 13 13 12 13 13 13 13 13 14 14 15 15 15 15 15 15 15 15 15 15 15 16 16 16 16 16 17 17 17 17 18 18 18 18 19 19 20 20
14 14 15 15 15 14 14 13 13 14 14 14 14 15 15 16 16 16 16 16 16 16 16 16 16 17 17 18 18 18 18 18 18 17 18 18 19 19 19 20 21 21 21
16 16 16 16 16 16 15 15 15 15 14 15 14 15 15 16 16 16 16 17 17 18 17 17 18 18 19 20 20 19 20 20 19 19 19 19 20 20 20 20 21 21 21
17 17 17 17 17 17 17 16 16 16 16 16 16 16 16 16 16 17 17 18 18 18 18 18 19 20 20 21 22 22 21 21 21 21 20 20 20 21 21 21 21 21 22
18 18 18 19 18 18 18 18 18 18 17 17 17 17 17 17 18 18 18 18 19 19 20 20 20 21 21 22 23 24 23 22 22 22 20 20 20 21 21 21 21 22 22
19 19 20 20 20 20 20 19 19 19 18 18 18 17 17 18 19 19 19 19 19 20 21 21 22 22 22 23 24 25 24 24 23 22 21 21 21 21 21 22 22 22 22
19 20 20 20 21 21 20 20 20 19 18 19 18 18 18 18 19 20 21 20 20 21 21 22 23 23 24 25 25 25 25 25 24 23 23 22 22 22 23 23 22 23 23
19 19 20 20 20 20 19 19 19 18 18 18 18 18 19 19 20 20 20 21 21 21 22 23 23 24 25 25 25 25 26 25 24 23 23 22 23 22 23 23 23 23 23
20 20 19 19 19 19 19 19 19 19 19 19 19 20 20 20 21 20 20 20 21 22 23 24 24 25 25 25 25 26 25 25 25 24 22 22 22 22 22 22 23 23 23
21 21 20 20 19 19 19 20 20 20 20 20 21 21 21 21 21 21 22 22 22 23 23 24 24 25 25 26 26 26 26 25 25 24 23 23 22 22 22 22 22 23 22
22 21 21 21 20 20 20 21 22 21 21 21 21 21 22 21 21 22 22 23 23 24 24 24 24 25 26 26 26 26 25 25 24 24 23 23 22 22 22 23 23 23 23
23 23 22 22 21 21 21 21 21 22 22 22 22 22 23 23 23 23 23 24 24 25 25 25 26 26 26 26 26 25 24 24 24 23 23 22 22 22 22 23 24 23 22
Wind_Direction
112 106 97 93 90 97 98 119 130 115 128 283 39 51 33 12 37 26 353 0 349 336 323 335 335 335 343 347 348 342 334 313 300 293 294 297 299 298 294 289 282 282 278
101 99 90 75 76 81 80 77 76 66 339 319 15 6 357 341 346 316 309 324 337 332 309 310 315 313 323 332 340 340 339 334 318 299 295 296 300 297 294 290 284 283 279
87 92 65 51 43 39 30 21 7 41 18 358 357 358 360 346 332 317 309 306 319 322 317 308 316 313 314 316 324 325 326 332 333 321 310 306 304 301 298 292 288 285 281
43 47 28 13 6 14 12 1 332 318 331 351 357 354 352 343 319 322 321 317 316 321 315 313 312 313 312 312 313 319 318 320 325 324 318 312 309 305 302 294 289 286 283
1 343 341 333 332 323 325 338 346 334 338 359 4 351 344 336 334 322 323 316 315 316 315 313 314 312 310 313 313 313 315 316 319 318 315 310 308 308 306 298 292 289 285
332 322 322 316 314 311 306 321 321 327 335 345 343 334 329 327 331 327 315 311 311 307 312 313 313 311 307 307 310 311 311 311 315 315 315 311 305 304 301 296 294 290 287
313 303 302 301 302 304 305 305 308 312 323 324 325 325 323 321 322 323 316 312 309 310 312 314 314 311 308 306 305 309 308 308 311 314 314 312 308 303 298 293 292 290 288
308 300 293 294 296 301 303 301 305 310 312 310 313 314 315 318 315 314 312 311 310 312 313 312 312 311 308 306 303 305 308 308 308 308 309 309 308 306 298 294 291 290 288
306 302 291 291 288 292 295 297 298 300 303 305 309 307 309 312 312 309 309 309 309 308 310 313 315 314 310 304 302 304 305 306 306 308 306 306 307 309 306 298 294 290 287
301 296 292 293 296 298 295 297 300 296 297 299 306 309 309 308 311 310 307 311 315 315 314 314 315 314 308 302 301 300 301 303 305 308 306 305 307 308 306 302 300 296 289
295 291 287 286 292 296 295 297 300 298 295 297 301 304 305 306 308 309 306 309 314 315 313 311 310 311 310 305 302 302 301 302 301 302 302 302 301 302 301 300 300 298 294
289 288 290 289 290 295 300 300 299 296 295 295 298 298 300 301 304 305 304 309 310 309 309 307 306 307 306 303 302 302 303 301 299 298 297 297 297 297 298 299 299 298 294
292 289 289 290 292 294 296 296 295 295 296 295 296 297 299 301 302 300 299 302 305 307 308 307 303 302 303 300 300 299 300 301 300 297 296 297 297 295 294 294 294 293 292
296 294 292 292 291 291 289 291 290 291 295 297 297 296 296 297 299 300 301 302 303 304 305 306 304 300 301 300 301 302 304 303 301 299 300 301 298 295 292 290 290 290 290
300 298 297 296 294 291 289 289 292 292 293 295 297 296 295 296 297 299 301 302 302 303 303 305 307 304 303 302 303 301 301 303 301 299 298 300 300 298 294 290 289 290 291
297 297 298 297 295 294 295 291 292 294 292 291 293 293 293 295 295 296 299 301 304 303 302 304 307 307 306 306 303 300 298 300 302 298 297 296 297 297 294 291 290 291 291
295 296 296 295 292 291 291 292 290 291 292 292 292 292 292 293 295 295 296 297 299 301 302 303 305 306 307 307 305 303 299 299 299 297 296 295 295 295 294 293 292 292 291
293 293 293 293 291 288 287 289 289 289 290 291 291 293 293 293 293 294 294 295 296 298 300 302 302 303 305 306 306 305 303 301 299 296 294 294 295 296 296 294 292 292 292
290 289 289 290 288 286 287 288 288 288 287 288 289 290 290 290 290 292 292 293 294 296 299 300 301 301 303 303 304 305 305 302 300 297 294 294 296 297 298 296 294 292 293
284 285 287 287 287 285 285 286 287 287 286 288 288 288 289 290 291 292 292 293 294 296 298 299 299 299 301 302 303 303 302 302 300 297 294 294 295 296 297 297 296 294 294
283 285 287 288 288 285 283 283 286 285 286 286 286 286 288 291 293 294 293 293 294 296 297 298 299 299 300 301 301 301 300 300 299 296 294 295 296 297 296 295 295 296 295
286 288 287 289 288 287 287 287 284 284 285 286 287 288 288 290 292 295 296 294 295 297 297 298 298 299 299 299 301 302 302 299 298 296 293 292 293 293 295 296 297 297 295
289 288 287 289 288 287 287 289 286 283 282 282 286 288 289 288 290 291 292 295 296 298 298 299 300 301 301 300 300 300 300 298 298 296 294 294 293 294 296 297 297 296 295
288 286 286 286 286 286 288 287 285 283 283 284 286 288 290 290 291 290 290 292 294 296 299 301 302 302 303 302 302 301 299 297 296 294 293 294 293 294 295 297 298 297 295
285 284 283 285 284 284 286 286 284 284 285 285 285 286 289 291 293 292 292 293 294 295 297 300 302 303 303 302 301 301 298 297 296 295 295 295 294 294 295 295 295 295 294
283 283 283 283 283 283 282 282 283 282 284 285 285 285 287 289 290 292 293 295 296 296 296 296 299 302 303 303 302 301 300 297 295 294 294 295 295 294 294 294 294 293 291
Height
5898 5898 5899 5899 5900 5900 5900 5900 5901 5901 5901 5901 5901 5901 5901 5901 5901 5901 5902 5902 5902 5902 5902 5902 5901 5901 5901 5901 5901 5901 5900 5900 5900 5900 5900 5899 5899 5899 5898 5898 5897 5897 5897
5899 5899 5900 5900 5900 5901 5901 5901 5901 5901 5901 5901 5901 5901 5901 5902 5902 5902 5901 5901 5902 5901 5901 5901 5901 5901 5901 5901 5900 5900 5899 5899 5898 5898 5898 5898 5897 5897 5896 5896 5895 5895 5895
5900 5900 5900 5901 5901 5901 5901 5901 5900 5901 5901 5901 5901 5901 5901 5901 5901 5902 5901 5901 5901 5901 5901 5900 5900 5900 5900 5900 5900 5899 5899 5898 5897 5896 5896 5896 5895 5895 5894 5893 5893 5893 5892
5901 5901 5901 5901 5901 5901 5901 5901 5901 5901 5901 5901 5901 5901 5901 5901 5901 5901 5901 5901 5900 5900 5900 5900 5899 5899 5899 5899 5899 5898 5898 5897 5896 5895 5895 5894 5893 5893 5892 5891 5891 5890 5890
5902 5902 5902 5902 5902 5902 5902 5902 5902 5901 5901 5901 5901 5901 5901 5901 5901 5900 5900 5900 5900 5900 5899 5899 5898 5898 5898 5898 5897 5897 5896 5896 5895 5894 5893 5892 5891 5891 5890 5889 5888 5888 5887
5902 5902 5902 5902 5902 5902 5902 5902 5901 5901 5901 5901 5901 5901 5901 5901 5900 5900 5899 5899 5899 5899 5898 5898 5897 5897 5897 5896 5896 5895 5894 5894 5893 5892 5891 5890 5889 5888 5887 5887 5886 5885 5885
5902 5902 5902 5902 5902 5902 5901 5901 5901 5901 5901 5901 5901 5901 5900 5900 5900 5899 5898 5898 5898 5897 5897 5896 5896 5895 5895 5895 5894 5893 5893 5892 5891 5890 5889 5888 5887 5886 5885 5884 5883 5882 5882
5902 5902 5901 5901 5901 5901 5901 5901 5901 5901 5901 5901 5901 5900 5900 5900 5899 5898 5898 5897 5896 5896 5895 5895 5894 5893 5893 5893 5892 5892 5891 5890 5889 5888 5887 5886 5885 5883 5882 5881 5880 5880 5879
5901 5901 5900 5900 5900 5900 5900 5900 5900 5900 5900 5900 5899 5899 5899 5898 5897 5897 5896 5896 5895 5894 5894 5893 5892 5892 5891 5891 5890 5889 5889 5888 5887 5886 5884 5883 5882 5881 5879 5878 5878 5877 5876
5900 5900 5899 5899 5899 5899 5899 5899 5899 5899 5899 5898 5898 5898 5897 5897 5896 5895 5895 5894 5893 5893 5892 5891 5890 5890 5889 5888 5887 5887 5886 5885 5884 5883 5881 5880 5879 5878 5876 5875 5874 5873 5872
5899 5898 5898 5898 5898 5898 5898 5897 5897 5897 5897 5897 5896 5896 5895 5895 5894 5894 5893 5892 5891 5890 5890 5889 5889 5888 5887 5886 5885 5883 5882 5882 5881 5879 5878 5877 5876 5874 5873 5872 5871 5870 5869
5897 5897 5896 5896 5896 5896 5896 5895 5895 5895 5895 5895 5894 5894 5893 5892 5892 5891 5890 5890 5889 5888 5887 5887 5886 5885 5884 5883 5882 5880 5879 5878 5877 5876 5874 5873 5872 5871 5870 5869 5867 5866 5865
5895 5894 5894 5894 5894 5894 5894 5893 5893 5893 5892 5892 5892 5891 5891 5890 5889 5889 5888 5887 5886 5886 5885 5884 5883 5882 5881 5879 5878 5877 5876 5874 5873 5872 5870 5869 5867 5866 5865 5864 5863 5862 5861
5892 5892 5892 5892 5892 5891 5891 5891 5891 5890 5890 5889 5889 5888 5888 5887 5886 5886 5885 5884 5883 5882 5881 5880 5879 5878 5877 5876 5874 5873 5872 5870 5869 5867 5866 5864 5863 5861 5860 5859 5858 5857 5856
5890 5889 5889 5889 5888 5888 5888 5888 5888 5887 5887 5886 5885 5885 5884 5884 5883 5882 5882 5881 5880 5879 5878 5877 5876 5874 5873 5872 5870 5869 5867 5866 5864 5862 5861 5859 5858 5856 5855 5854 5853 5852 5851
5887 5887 5886 5886 5885 5885 5884 5884 5884 5884 5883 5882 5882 5881 5881 5880 5880 5879 5878 5877 5876 5875 5874 5873 5872 5870 5869 5867 5866 5864 5862 5861 5859 5857 5856 5855 5853 5852 5850 5849 5848 5847 5846
5884 5883 5883 5882 5882 5881 5881 5880 5880 5879 5879 5878 5878 5877 5877 5876 5876 5875 5874 5873 5872 5871 5870 5869 5867 5866 5865 5863 5861 5859 5857 5855 5854 5852 5851 5849 5848 5846 5845 5844 5843 5841 5840
5880 5880 5879 5878 5878 5877 5877 5876 5876 5875 5875 5874 5874 5873 5873 5872 5871 5870 5870 5869 5868 5867 5866 5865 5863 5862 5860 5858 5856 5854 5852 5850 5848 5846 5845 5844 5842 5841 5839 5838 5837 5836 5835
5876 5876 5875 5874 5873 5873 5873 5872 5871 5871 5870 5869 5869 5868 5868 5867 5867 5866 5865 5864 5863 5862 5861 5860 5858 5856 5855 5853 5850 5848 5846 5844 5842 5840 5839 5838 5836 5835 5834 5832 5831 5830 5828
5872 5871 5870 5870 5869 5868 5868 5867 5866 5866 5865 5864 5864 5863 5863 5863 5862 5861 5860 5859 5858 5857 5856 5854 5853 5851 5849 5847 5845 5842 5840 5838 5836 5834 5833 5832 5831 5829 5828 5826 5825 5823 5822
5867 5866 5865 5865 5864 5863 5862 5861 5861 5860 5860 5859 5859 5859 5858 5858 5857 5856 5855 5854 5853 5852 5850 5849 5847 5845 5843 5841 5839 5836 5834 5832 5830 5828 5827 5826 5824 5823 5821 5820 5819 5817 5816
5862 5861 5861 5860 5859 5858 5857 5856 5856 5856 5856 5855 5854 5854 5854 5853 5852 5851 5850 5849 5847 5846 5845 5843 5841 5839 5837 5835 5832 5830 5827 5826 5824 5822 5821 5820 5818 5817 5815 5814 5813 5811 5810
5858 5857 5856 5855 5854 5853 5853 5852 5851 5851 5850 5850 5850 5849 5849 5848 5847 5846 5845 5843 5842 5840 5839 5837 5835 5833 5830 5828 5826 5823 5821 5819 5817 5815 5814 5813 5812 5811 5809 5808 5806 5805 5803
5852 5851 5850 5850 5849 5848 5848 5847 5846 5845 5845 5845 5844 5844 5843 5842 5842 5841 5839 5838 5836 5835 5833 5831 5829 5827 5824 5822 5819 5817 5815 5813 5811 5809 5808 5807 5805 5804 5803 5802 5800 5798 5797
5846 5846 5845 5845 5844 5843 5842 5841 5841 5840 5840 5839 5839 5838 5837 5837 5836 5835 5834 5832 5831 5829 5827 5825 5823 5821 5818 5815 5813 5811 5809 5807 5805 5804 5802 5801 5799 5798 5797 5795 5794 5792 5791
5840 5840 5839 5839 5838 5837 5836 5835 5835 5834 5834 5834 5833 5832 5831 5831 5830 5828 5827 5826 5824 5822 5820 5819 5817 5814 5812 5809 5807 5805 5802 5800 5799 5798 5796 5794 5793 5792 5791 5789 5787 5786 5785